Content
SEND FEEDBACK

Daily
Averages
Monthly
Summary
United States of America

OTIS, OREGON


Home > North America > United States > Oregon
Elevation: 172 meters     Latitude: 45 02N     Longitude: 123 56W

WEATHER
 
SELECT A DAY
Number of Records: 188,004;   Date Range: 11/29/06 - 7/22/14
 
SHARE

PRINT THIS DATA

[ ← Previous Day ]
WEATHER ALMANAC - 31 JANUARY, 2013
[ Next Day → ]
[ °F ]   °C
Weather ElementAverageHighLow
Temperature8.6 °C12 °C (2:15 pm)4 °C (9:15 am)
Dewpoint7.8 °C11 °C (1:55 pm)4 °C (9:15 am)
Humidity94.9 %100 % (12:35 am)77 % (3:35 pm)
Barometer1029.8 hPa1032.2 hPa (1:55 am)1028.1 hPa (7:15 pm)
Wind Speed1.3 km/h7.4 km/h (1:55 pm)
Weather ElementAverage
Visibility10.9 km
Wind DirectionNNE (35.1 °)

Weather ElementTotal
Precipitation2.29 mm
Heating Degree Days10.3 (Base 18.3)
Averaged from 69 records on 31 January, 2013
WEATHER CONDITIONS BREAKOUT
WIND DIRECTION BREAKOUT
WEATHER BY HOUR - 31 JANUARY, 2013
[ °F ]   °C
Local TimeTemperatureDewpointHumidityBarometerVisibilityWind DirectionWind SpeedGust SpeedPrecipitationEventsConditions
12:35 AM9 °C9 °C100 %1031.8 hPa8 kmSouth (190°)5.6 km/h0.51 mmLight Drizzle
12:55 AM9 °C9 °C100 %1031.8 hPa16.1 kmSSE (160°)5.6 km/h0.76 mmOvercast
1:15 AM9 °C9 °C100 %1031.8 hPa16.1 kmCalmOvercast
1:35 AM9 °C9 °C100 %1031.8 hPa16.1 kmCalmOvercast
1:55 AM9 °C9 °C100 %1032.2 hPa11.3 kmSouth (170°)5.6 km/hOvercast
2:15 AM9 °C9 °C100 %1031.8 hPa16.1 kmESE (110°)5.6 km/hOvercast
2:35 AM8 °C8 °C100 %1032.2 hPa8 kmSSE (150°)5.6 km/hOvercast
2:55 AM8 °C8 °C100 %1031.8 hPa11.3 kmESE (120°)5.6 km/hOvercast
3:15 AM8 °C8 °C100 %1031.8 hPa6.4 kmCalmOvercast
3:35 AM8 °C8 °C100 %1031.8 hPa6.4 kmCalmOvercast
3:55 AM8 °C8 °C100 %1031.5 hPa1.3 kmCalmOvercast
4:15 AM8 °C8 °C100 %1031.5 hPa0.8 kmCalmFogFog
4:35 AM8 °C8 °C100 %1031.2 hPa4.8 kmCalmOvercast
4:55 AM8 °C8 °C100 %1030.8 hPa4.8 kmSE (130°)5.6 km/hOvercast
5:15 AM8 °C8 °C100 %1030.8 hPa11.3 kmCalmOvercast
5:35 AM8 °C8 °C100 %1030.8 hPa16.1 kmCalmScattered Clouds
5:55 AM7 °C7 °C100 %1030.8 hPa11.3 kmCalmMostly Cloudy
6:15 AM7 °C7 °C100 %1030.8 hPa4 kmCalmMostly Cloudy
6:35 AM6 °C6 °C100 %1030.8 hPa0.3 kmCalmFogFog
6:55 AM5 °C5 °C100 %1030.8 hPa0.8 kmCalmFogFog
7:15 AM5 °C5 °C100 %1030.8 hPa0.8 kmCalmFogFog
7:35 AM5 °C5 °C100 %1030.8 hPa0.3 kmCalmFogFog
7:55 AM6 °C6 °C100 %1030.8 hPa0.3 kmCalmFogFog
8:15 AM5 °C5 °C100 %1030.8 hPa1.9 kmCalmOvercast
8:35 AM5 °C5 °C100 %1030.8 hPa4.8 kmCalmMostly Cloudy
8:55 AM5 °C5 °C100 %1030.8 hPa0.3 kmCalmFogFog
9:15 AM4 °C4 °C100 %1030.8 hPa0.3 kmCalmFogFog
9:35 AM5 °C5 °C100 %1030.8 hPa0.8 kmCalmFogFog
9:55 AM5 °C5 °C100 %1030.8 hPa6.4 kmCalmClear
10:15 AM6 °C6 °C100 %1030.8 hPa11.3 kmCalmClear
10:35 AM7 °C7 °C100 %1030.8 hPa8 kmCalmScattered Clouds
10:55 AM7 °C7 °C100 %1030.8 hPa16.1 kmCalmMostly Cloudy
11:15 AM8 °C8 °C100 %1030.5 hPa16.1 kmCalmOvercast
11:35 AM8 °C8 °C100 %1030.5 hPa11.3 kmCalm0.25 mmRainLight Rain
11:55 AM8 °C8 °C100 %1030.5 hPa16.1 kmCalm0.25 mmRainLight Rain
12:15 PM9 °C9 °C100 %1030.1 hPa16.1 kmCalmRainLight Rain
12:35 PM9 °C9 °C100 %1030.1 hPa16.1 kmCalm0.25 mmOvercast
12:55 PM10 °C10 °C100 %1030.1 hPa16.1 kmCalm0.25 mmOvercast
1:15 PM10 °C10 °C100 %1029.8 hPa16.1 kmCalmOvercast
1:35 PM10 °C10 °C100 %1029.5 hPa16.1 kmCalmOvercast
1:55 PM11 °C11 °C100 %1029.1 hPa16.1 kmNE (50°)7.4 km/hOvercast
2:15 PM12 °C9 °C82 %1029.1 hPa16.1 kmCalmOvercast
2:35 PM12 °C9 °C82 %1028.8 hPa16.1 kmCalmOvercast
2:55 PM12 °C9 °C82 %1028.8 hPa16.1 kmCalmOvercast
3:15 PM12 °C9 °C82 %1028.4 hPa16.1 kmCalmOvercast
3:35 PM12 °C8 °C77 %1028.4 hPa16.1 kmCalmOvercast
3:55 PM12 °C8 °C77 %1028.4 hPa16.1 kmWSW (250°)5.6 km/hOvercast
4:15 PM12 °C8 °C77 %1028.4 hPa16.1 kmWSW (240°)5.6 km/hOvercast
4:35 PM12 °C9 °C82 %1028.4 hPa16.1 kmCalmOvercast
4:55 PM12 °C9 °C82 %1028.4 hPa16.1 kmWSW (250°)5.6 km/hOvercast
5:15 PM11 °C8 °C82 %1028.4 hPa16.1 kmWSW (250°)7.4 km/hOvercast
5:35 PM11 °C8 °C82 %1028.4 hPa11.3 kmWest (260°)7.4 km/hOvercast
6:15 PM10 °C8 °C87 %1028.4 hPa16.1 kmCalmOvercast
6:35 PM10 °C7 °C82 %1028.4 hPa16.1 kmCalmOvercast
6:55 PM10 °C7 °C82 %1028.4 hPa16.1 kmCalmOvercast
7:15 PM10 °C8 °C87 %1028.1 hPa16.1 kmNE (40°)5.6 km/hOvercast
7:35 PM9 °C8 °C93 %1028.4 hPa16.1 kmCalmOvercast
7:55 PM9 °C8 °C93 %1028.1 hPa16.1 kmCalmOvercast
8:15 PM9 °C8 °C93 %1028.1 hPa16.1 kmCalmOvercast
8:35 PM9 °C8 °C93 %1028.1 hPa16.1 kmCalmOvercast
8:55 PM9 °C8 °C93 %1028.1 hPa16.1 kmCalmOvercast
9:15 PM9 °C8 °C93 %1028.1 hPa16.1 kmCalmOvercast
9:35 PM9 °C8 °C93 %1028.1 hPa16.1 kmCalmOvercast
9:55 PM9 °C8 °C93 %1028.1 hPa11.3 kmCalmOvercast
10:15 PM9 °C8 °C93 %1028.1 hPa11.3 kmNE (50°)5.6 km/hOvercast
10:35 PM9 °C8 °C93 %1028.1 hPa11.3 kmCalmOvercast
11:15 PM9 °C8 °C93 %1028.1 hPa2.9 kmCalmOvercast
11:35 PM9 °C9 °C100 %1028.1 hPa2.4 kmCalmOvercast
11:55 PM9 °C9 °C100 %1028.1 hPa3.2 kmCalmOvercast
Hourly data recorded from KTMK, located 0 kilometers away from Otis, Oregon







STORIES FROM OUR PARTNERS